STARLINK-2702 (48441 NORAD) Tracking and Keplerian Element Data

This shows tracking and keplerian element data for the satellite.

Feedback or suggestion? Click here.




ElementValue
Catalog48441
NameSTARLINK-2702
Epoch Orbit365
Epoch Day210.91668981
Epoch Year2021
RAAN181.2395
Inclination53.0456
Eccentricity0.0001424
Argument of Perigee81.4083
Mean Anonmoly136.2458
Mean Motion15.27534357
Decay Rate-0.00841227
L11 48441U 21040P 21210.91668981 -.00841227 00000-0 -33413-1 0 9993
L22 48441 53.0456 181.2395 0001424 81.4083 136.2458 15.27534357 3655

Live tracking and technical data element details for STARLINK-2702 (NORAD 48441). STARLINK-2702 can be tracked NOW for your location showing map with azimuth and elevation plus other details from your city location.

Track the satellite on the map from your city or location and see movement details for azimuth, elevation, latitude, longitude, range, height, and movement on the map or in text.







IsCatalogInMostPopularTable: catalog: 48441, numindb: 28
Update: records affected: 1



GetName: 48441 STARLINK-2702

Hit Count: updated at: Sat, 31 Jul 2021 14:53:44 GMT